Showing default

AFR-1, 56964

Orbit data source: Space-Track

AFR-1, 56964 is a payload satellite owned by Azista BST (IN) in SSO that was launched on Mon, 12 Jun 2023 UTC via an FALCON 9 launch vehicle from the Air Force Western Test Range (AFWTR). Payload-class satellites include a variety of spacecraft equipped with specific instruments for various scientific and technological missions. These include communications satellites like Starlink; space stations such as the ISS; scientific satellites like the Hubble; Earth observation satellites from companies like Planet Labs, Umbra, and HawkEye 360; GPS; miniature CubeSats for education and research; and military/defense satellites.

Loading next visibility...
Identifier
56964, 2023-084AJ
Orbit
SSO
Country
Flag of ININ / IND
Related business
Manufacturer
Azista BST
Mission
Operational Commercial Imaging
Bus & Motor
AFR, Unknown motor
Mass
80 kg wet, 80 kg dry
Launch date (UTC)
2023-06-12 (3 years ago)
Launch vehicle
FALCON 9
Launch site
Air Force Western Test Range (AFWTR)
Object type
Payload
Rocket body
Debris
Shape & HBR
Box + 1 Pan, 0.5 m
Radar Cross Section
1.100 m², Medium (>0.1 m² and < 1m²)

Expand to show TLE details & history
Last TLE update: 8 hours ago

TLE from 8 hours ago
0 AFR-1
1 56964U 23084AJ  25352.63589676  .00004704  00000-0  18350-3 0  9999
2 56964  97.6025 120.5710 0009639 252.6710 107.3474 15.26398498139663
Epoch: 2025-12-18T15:15Z
TLE epoch observation values (Epoch: 2025-12-18T15:15:41.480Z)
Latitude
0.00001°
Longitude
164.1596°
Altitude
491.662 km
Speed
7.618 km/s
True Right ascension
08h 02m 17s
True Declination
0° 00' 00"
Sunlit
Object was in full shadow at epoch
Visualization orbit readout
Latitude
Unknown
Longitude
Unknown
Altitude
Unknown
Speed
Unknown
Apparent Right ascension
Unknown
Apparent Declination
Unknown
Sunlit
N/A
Visualization observer readout
Local Sidereal Time
22:19:48
Azimuth
Unknown
Elevation
Unknown
Doppler factor
Unknown
Orbital elements
Apogee altitude
490.169 km
Perigee altitude
476.941 km
Semi-major axis
6,861.692 km
Eccentricity
0.00096
Inclination
97.6025°
RAAN
120.571°
Arg. of periapsis
252.671°
True anomaly
107.45279°
Mean anomaly
107.3474°
Eccentric anomaly
107.4001°
Mean motion
3.81853 °/min
Orbital period
94.28 mins
BSTAR
0.0001835
Loading maneuver chart data...
Computing Atmospheric mass density...

Documentation

Showing up to 5 results
|